Location: ?ernice
(48.8383°N, 14.3803°E)
Time: 19:59:04
(UTC+00:00)

CZ-2C R/B - Pass Details

Date: 23 May 2024
Orbit: 703 x 904 km, 98.2° (Epoch: 20 June)

Event Time Altitude Azimuth Distance (km) Brightness Sun altitude
Rises 01:34:59 0° 12° (NNE) 3,538 7.7 -12.3°
Reaches altitude 10° 01:37:24 10° 12° (NNE) 2,597 6.8 -12.1°
Maximum altitude 01:43:15 80° 286° (WNW) 920 3.3 -11.5°
Enters shadow 01:48:30 12° 201° (SSW) 2,367 4.9 -11.0°
